{"data":{"norad_id":66160,"intl_designator":"2025-240Q","name":"STARLINK-35636","alt_names":[],"object_type":"PAYLOAD","status":"ACTIVE","operator":null,"country":"US","launch_date":"2025-10-25","launch_site_code":"AFWTR","launch_vehicle":null,"mission":null,"orbit_class":"UNKNOWN","rcs_meters":null,"size_class":null,"mass_kg":null,"dimensions":null,"purposes":["comms"],"wikipedia_slug":null,"has_3d_model":false,"image_url":null,"decayed_at":null,"tle_current":{"epoch":"2026-05-25T03:58:07.916160Z","epoch_age_seconds":61535,"freshness":"FRESH","line1":"1 66160U 25240Q   26145.16536940  .00018705  00000+0  64181-3 0  9997","line2":"2 66160  53.1596  67.8463 0000859 109.2970 250.8124 15.30212946 33690","mean_motion":15.30212946,"eccentricity":8.59e-5,"inclination_deg":53.1596,"raan_deg":67.8463,"arg_perigee_deg":109.297,"mean_anomaly_deg":250.8124,"bstar":0.00064181,"rev_number":3369,"period_min":94.104549550713,"perigee_km":474.58771564701,"apogee_km":475.76511489175,"semimajor_km":6853.3134152694,"source":"CELESTRAK","updated_at":"2026-05-25T13:38:21.071735Z"}}}